Simultaneous Nadir Overpasses (SNOs) Predictions

Prediction of SNOs between NOAA-20 and AQUA Satellite Orbit:

Table of predicted SNOs for the next 14.0 days since TLE Epoch: 3/2/2024
Index Date (NOAA-20) Time (NOAA-20) Lat,Lon (NOAA-20) SZA (NOAA-20 ) Date (AQUA) Time (AQUA) Lat,Lon (AQUA) SZA (AQUA ) Distance(km) Time Diff (sec)
1 03/03/2024 04:37:51 -81.09,-150.90 84.31 03/03/2024 04:38:59 -81.09,-150.88 84.36 0.32 68
2 03/03/2024 05:28:33 81.12, 17.46 95.52 03/03/2024 05:28:20 81.12, 17.30 95.56 2.74 13
3 03/05/2024 18:22:28 81.12,-176.13 94.55 03/05/2024 18:22:29 81.12,-176.22 94.56 1.49 1
4 03/08/2024 07:16:23 81.11, -9.77 93.58 03/08/2024 07:16:37 81.12, -9.74 93.56 0.56 14
5 03/08/2024 08:07:07 -81.13, 158.01 86.51 03/08/2024 08:06:00 -81.13, 158.07 86.48 1.02 67
6 03/10/2024 20:10:18 81.11, 156.54 92.60 03/10/2024 20:10:44 81.11, 156.72 92.56 3.27 26
7 03/10/2024 21:01:00 -81.15, -34.90 87.61 03/10/2024 21:00:06 -81.15, -35.07 87.54 2.94 54
8 03/13/2024 09:04:12 81.11, -36.83 91.57 03/13/2024 09:04:50 81.11, -36.82 91.54 0.14 38
9 03/13/2024 09:54:56 -81.13, 131.01 88.53 03/13/2024 09:54:13 -81.12, 131.05 88.51 0.76 43
10 03/15/2024 21:58:05 81.11, 129.76 90.54 03/15/2024 21:58:54 81.11, 129.63 90.53 2.28 49



Historial Predications of SNOs between NOAA-20 and AQUA
